Lapse_Rate
7.0 6.9 6.9 6.9 6.8 6.5 6.3 5.9 5.7 5.4 5.4 5.5 5.5 5.3 5.1 5.0 5.1 5.1 5.5 5.5 5.5 5.4 5.4 5.7 5.8 5.8 5.8 5.8 5.7 5.7 5.6 5.5 5.5 5.5 5.4 5.3 5.2 5.0 4.9 4.8 4.7 4.5 4.4 4.6 4.6 4.9 4.8 4.8 4.8
6.9 6.8 6.9 6.9 6.8 6.5 6.2 6.0 5.7 5.6 5.7 5.7 5.6 5.4 5.3 5.3 5.5 5.6 5.7 5.7 5.7 5.7 5.9 6.2 6.2 6.1 6.0 6.0 6.0 6.0 6.0 5.9 5.7 5.6 5.6 5.5 5.5 5.3 5.2 5.0 4.9 4.9 4.7 4.6 4.7 4.8 4.9 5.1 5.1
6.8 6.9 6.9 6.8 6.5 6.3 6.2 6.0 5.8 5.7 5.8 5.7 5.7 5.6 5.5 5.6 5.8 5.8 5.8 5.9 6.0 6.1 6.3 6.4 6.3 6.2 6.2 6.1 6.1 6.1 6.1 6.1 6.0 5.9 5.8 5.8 5.7 5.7 5.7 5.4 5.2 5.0 5.1 5.0 4.8 5.0 5.2 5.2 5.3
6.8 6.8 6.7 6.4 6.5 6.4 6.2 6.0 5.9 5.9 5.9 5.9 5.8 5.6 5.7 5.9 6.0 6.0 6.1 6.3 6.4 6.4 6.5 6.5 6.5 6.5 6.5 6.5 6.4 6.3 6.2 6.2 6.2 6.1 6.1 6.0 5.9 5.8 5.8 5.8 5.6 5.4 5.3 5.2 5.1 5.1 5.2 5.4 5.6
6.6 6.7 6.6 6.5 6.3 6.3 6.1 6.0 6.0 6.0 6.0 6.0 5.8 5.7 5.9 6.2 6.3 6.3 6.4 6.5 6.5 6.6 6.7 6.6 6.6 6.6 6.6 6.5 6.5 6.4 6.4 6.3 6.2 6.1 6.1 6.1 6.1 6.1 6.0 6.0 5.9 5.8 5.6 5.6 5.5 5.5 5.4 5.4 5.6
6.4 6.4 6.4 6.4 6.3 6.2 5.9 5.9 5.8 6.0 5.9 5.8 5.7 5.8 6.1 6.4 6.5 6.6 6.7 6.8 6.8 6.8 6.7 6.7 6.6 6.6 6.7 6.7 6.6 6.6 6.5 6.4 6.3 6.3 6.2 6.1 6.0 6.0 6.0 6.0 6.0 5.9 5.8 5.7 5.7 5.7 5.7 5.6 5.6
6.4 6.5 6.4 6.3 6.1 5.9 5.8 5.9 5.8 5.8 5.8 5.8 5.8 6.0 6.3 6.6 6.7 6.7 6.8 6.9 7.0 6.9 6.9 6.9 6.9 6.8 6.6 6.5 6.5 6.5 6.5 6.4 6.4 6.4 6.3 6.3 6.2 6.1 6.0 6.0 5.9 5.9 5.9 5.8 5.8 5.7 5.7 5.8 5.8
6.3 6.2 6.2 6.3 6.0 5.8 5.8 5.7 5.8 5.8 5.8 5.9 6.0 6.3 6.5 6.7 6.8 6.8 7.0 7.0 7.0 7.0 7.0 7.0 6.8 6.7 6.7 6.7 6.6 6.4 6.4 6.4 6.3 6.2 6.2 6.2 6.2 6.2 6.3 6.2 6.0 5.9 5.8 5.8 5.8 5.7 5.8 5.8 5.8
6.0 6.0 6.0 6.0 5.9 5.8 5.6 5.7 5.8 5.8 5.9 6.1 6.4 6.6 6.7 6.8 7.0 7.0 7.1 7.1 7.0 7.1 7.0 7.0 6.8 6.8 6.7 6.7 6.6 6.6 6.5 6.3 6.3 6.3 6.3 6.2 6.2 6.2 6.1 6.1 6.1 6.0 6.0 5.9 5.9 5.8 5.8 5.8 5.9
5.9 5.8 5.7 5.7 5.6 5.6 5.6 5.8 5.9 6.0 6.2 6.3 6.6 6.7 6.8 7.0 7.1 7.2 7.1 7.1 7.1 7.2 7.1 7.1 6.9 6.8 6.8 6.7 6.6 6.6 6.5 6.4 6.3 6.3 6.2 6.3 6.2 6.2 6.1 6.1 6.1 6.1 6.0 6.0 6.0 6.0 5.9 5.9 5.9
6.0 5.8 5.6 5.6 5.6 5.6 5.8 6.0 6.1 6.2 6.3 6.3 6.7 6.9 7.1 7.2 7.2 7.2 7.2 7.2 7.1 7.2 7.2 7.1 7.0 6.9 6.9 6.8 6.7 6.6 6.6 6.5 6.5 6.4 6.5 6.4 6.4 6.3 6.2 6.2 6.2 6.2 6.1 6.1 6.1 6.1 6.1 6.0 6.0
5.9 5.7 5.7 5.7 5.7 5.9 6.0 6.0 6.1 6.3 6.3 6.5 6.9 7.0 7.1 7.2 7.3 7.4 7.4 7.3 7.3 7.3 7.2 7.2 7.1 7.0 6.9 6.8 6.7 6.6 6.4 6.4 6.4 6.4 6.3 6.3 6.3 6.2 6.3 6.2 6.3 6.3 6.3 6.3 6.2 6.1 6.1 6.1 6.1
5.9 5.9 5.9 5.9 5.9 5.9 6.0 6.1 6.1 6.3 6.6 6.8 6.9 7.0 7.1 7.2 7.2 7.3 7.3 7.3 7.3 7.2 7.1 7.0 7.0 6.9 6.8 6.7 6.6 6.6 6.5 6.3 6.2 6.2 6.2 6.1 6.1 6.1 6.1 6.1 6.1 6.1 6.2 6.2 6.3 6.3 6.3 6.3 6.3
6.1 6.1 6.0 5.9 5.9 6.1 6.1 6.3 6.3 6.5 6.6 6.8 6.9 7.0 7.1 7.2 7.3 7.2 7.3 7.3 7.3 7.2 7.1 6.9 6.8 6.7 6.7 6.6 6.5 6.3 6.3 6.2 6.2 6.1 6.1 6.0 6.1 6.1 6.1 6.1 6.1 6.1 6.1 6.1 6.0 6.1 6.1 6.1 6.2
6.2 6.1 6.0 6.0 6.0 6.2 6.2 6.3 6.3 6.5 6.6 6.8 7.0 7.1 7.1 7.2 7.2 7.3 7.3 7.2 7.1 7.0 6.8 6.8 6.6 6.5 6.4 6.4 6.4 6.3 6.2 6.2 6.2 6.2 6.1 6.1 6.1 6.0 6.0 6.1 6.1 6.1 6.1 6.0 6.0 6.0 6.0 6.1 6.0
6.1 6.1 6.1 6.2 6.2 6.2 6.2 6.4 6.4 6.4 6.5 6.7 6.9 7.0 7.1 7.1 7.1 7.0 7.0 7.0 6.9 6.8 6.7 6.7 6.6 6.5 6.3 6.3 6.3 6.2 6.1 6.1 6.3 6.2 6.2 6.2 6.2 6.1 6.1 6.1 6.1 6.1 6.2 6.1 6.1 6.0 5.9 5.9 5.9
6.2 6.2 6.2 6.2 6.2 6.2 6.3 6.5 6.6 6.7 6.7 6.7 6.9 7.0 7.1 7.0 7.0 7.0 7.0 7.0 7.0 6.9 6.7 6.6 6.4 6.3 6.3 6.2 6.1 6.0 6.0 6.0 6.0 6.1 6.1 6.2 6.2 6.2 6.2 6.1 6.2 6.2 6.2 6.2 6.2 6.2 6.0 6.0 6.0
6.1 6.1 6.1 6.1 6.2 6.3 6.4 6.5 6.8 7.0 7.0 7.0 7.0 7.0 7.0 6.9 7.0 6.9 6.9 6.9 6.8 6.7 6.7 6.6 6.4 6.4 6.2 6.0 5.9 5.8 5.8 5.7 5.8 5.9 6.0 6.0 6.0 6.0 6.0 6.0 6.0 6.0 6.0 6.1 6.1 6.1 6.1 6.0 5.9
6.1 6.0 6.1 6.1 6.1 6.2 6.4 6.5 6.7 6.9 7.1 7.0 7.0 7.0 7.0 7.0 7.0 6.9 6.8 6.7 6.7 6.6 6.6 6.5 6.4 6.3 6.1 6.0 5.8 5.6 5.5 5.5 5.6 5.7 5.7 5.8 5.8 5.8 5.7 5.7 5.7 5.9 5.9 5.9 5.9 6.0 6.0 5.9 6.0
5.9 6.0 5.9 5.8 5.9 6.0 6.2 6.4 6.5 6.6 6.8 6.9 6.9 6.9 6.9 6.9 6.8 6.7 6.6 6.5 6.4 6.4 6.4 6.3 6.3 6.2 6.1 6.0 5.8 5.6 5.5 5.4 5.5 5.6 5.6 5.7 5.7 5.6 5.5 5.4 5.4 5.6 5.6 5.7 5.7 5.8 6.0 5.9 5.9
5.6 5.5 5.5 5.5 5.7 6.0 6.2 6.3 6.4 6.4 6.5 6.6 6.7 6.7 6.8 6.8 6.6 6.5 6.4 6.3 6.3 6.4 6.3 6.2 6.2 6.2 6.1 5.9 5.8 5.7 5.6 5.5 5.4 5.5 5.5 5.6 5.6 5.4 5.4 5.3 5.3 5.3 5.4 5.4 5.5 5.5 5.7 5.8 5.8
5.4 5.4 5.4 5.4 5.5 5.8 5.9 6.3 6.4 6.3 6.4 6.5 6.5 6.6 6.6 6.6 6.6 6.5 6.5 6.5 6.4 6.3 6.2 6.1 6.1 6.1 6.0 5.9 5.9 5.7 5.7 5.6 5.3 5.3 5.4 5.4 5.5 5.4 5.4 5.3 5.2 5.2 5.4 5.4 5.3 5.5 5.5 5.6 5.7
5.3 5.3 5.3 5.3 5.3 5.5 5.7 5.9 6.5 6.4 6.4 6.3 6.4 6.4 6.5 6.5 6.5 6.5 6.4 6.3 6.3 6.2 6.0 5.8 5.8 5.8 5.8 5.8 5.8 5.8 5.8 5.7 5.5 5.3 5.3 5.2 5.3 5.4 5.3 5.3 5.2 5.2 5.3 5.3 5.4 5.5 5.7 5.9 5.9
5.1 5.2 5.2 5.3 5.4 5.3 5.8 5.8 6.6 6.5 6.5 6.3 6.3 6.4 6.5 6.6 6.5 6.4 6.3 6.3 6.3 6.2 6.1 6.0 5.9 5.8 5.9 5.9 5.9 5.9 5.9 5.8 5.7 5.4 5.4 5.2 5.2 5.1 5.1 5.2 5.3 5.3 5.2 5.2 5.3 5.5 5.8 6.0 6.1
5.1 5.2 5.1 5.1 5.0 5.2 5.4 5.5 6.7 6.5 6.3 6.3 6.3 6.3 6.4 6.4 6.4 6.4 6.3 6.3 6.1 6.1 6.1 6.1 6.0 5.8 6.0 5.9 5.9 6.1 6.0 6.0 5.9 5.6 5.5 5.5 5.2 5.0 5.0 5.2 5.4 5.3 5.2 5.3 5.4 5.6 5.8 5.9 6.2
5.2 5.2 5.2 5.5 4.7 5.0 5.2 5.6 6.7 6.5 6.4 6.4 6.3 6.3 6.4 6.4 6.4 6.4 6.3 6.3 6.2 6.3 6.2 6.1 6.0 5.7 5.8 5.9 6.0 5.9 5.9 5.9 5.8 5.8 5.8 5.5 5.3 5.1 5.1 5.2 5.3 5.3 5.4 5.4 5.5 5.9 5.9 6.0 6.2
5.1 5.1 5.3 5.3 4.6 4.6 5.7 6.4 6.7 6.6 6.6 6.6 6.5 6.5 6.4 6.4 6.5 6.4 6.4 6.4 6.4 6.3 6.3 6.2 6.1 5.9 5.9 5.9 5.9 5.9 6.0 6.0 6.0 5.9 5.8 5.7 5.5 5.5 5.4 5.2 5.1 5.2 5.4 5.6 5.8 6.0 6.1 6.2 6.3
5.1 5.1 5.0 5.2 4.4 4.9 5.3 6.1 7.3 7.2 7.0 6.8 6.8 6.6 6.5 6.5 6.5 6.5 6.4 6.4 6.4 6.4 6.4 6.3 6.3 6.3 6.3 6.3 6.2 6.1 6.1 6.1 6.0 5.9 5.9 5.9 5.8 5.6 5.5 5.3 5.4 5.4 5.5 5.6 5.8 5.9 6.0 6.2 6.3
5.1 5.0 5.2 5.2 5.1 4.8 5.0 6.9 7.8 7.5 7.3 7.2 6.9 6.7 6.7 6.6 6.6 6.6 6.6 6.5 6.5 6.5 6.5 6.4 6.3 6.3 6.3 6.3 6.2 6.2 6.2 6.1 6.0 6.0 5.9 5.9 5.8 5.7 5.5 5.5 5.6 5.6 5.7 5.6 5.8 5.9 6.0 6.1 6.1
5.2 5.0 5.2 5.4 5.2 5.2 4.9 7.1 7.5 7.4 7.1 6.8 6.9 7.0 6.8 6.7 6.7 6.8 6.8 6.6 6.5 6.4 6.4 6.4 6.4 6.4 6.4 6.3 6.2 6.0 6.0 5.9 6.0 5.9 5.8 5.7 5.8 5.8 5.7 5.6 5.6 5.6 5.7 5.7 5.9 5.9 6.0 6.0 6.1
Wind_Speed
7 4 2 3 3 3 2 2 1 2 1 1 1 1 1 2 1 1 2 5 4 8 5 7 5 7 5 5 5 9 9 7 9 10 11 11 12 14 12 15 14 15 15 15 16 15 16 15 16
3 1 4 2 4 2 1 1 2 1 4 5 3 2 1 1 1 2 6 6 6 7 5 7 6 5 6 4 7 7 7 9 7 9 10 11 12 12 13 13 13 14 14 14 15 15 15 15 16
2 4 3 4 2 2 1 2 4 2 6 1 2 2 3 1 2 6 2 10 8 7 7 6 6 5 5 3 6 7 6 8 6 8 9 11 11 12 12 12 13 13 12 14 14 13 13 15 15
3 3 3 3 2 1 1 5 4 6 2 2 2 1 1 1 3 7 6 12 10 8 7 5 6 5 5 4 4 5 6 6 6 8 8 10 10 11 11 12 12 11 11 11 12 13 14 14 15
3 3 4 3 1 1 1 4 6 4 3 3 2 1 1 1 1 5 11 13 10 9 7 3 7 6 5 5 4 4 5 5 5 7 6 9 9 9 10 11 11 11 11 11 12 12 13 14 14
3 2 3 2 2 1 2 4 4 3 3 2 1 3 2 1 5 7 13 12 11 11 7 4 7 6 5 4 3 3 3 4 3 4 5 6 8 8 8 8 9 9 10 11 11 12 12 13 13
4 3 3 3 4 1 4 6 4 5 4 3 4 2 1 5 8 10 11 11 10 8 7 5 1 4 6 5 4 3 2 2 2 2 3 5 7 8 7 7 8 8 9 9 10 11 11 11 11
4 4 4 2 4 2 4 5 1 4 4 3 3 3 2 2 11 10 7 7 7 7 7 6 4 4 4 3 5 3 2 1 2 2 2 4 5 7 7 7 9 9 9 8 8 9 8 9 10
2 3 3 5 5 2 4 3 1 1 4 3 5 2 2 6 12 10 7 6 6 5 6 6 6 5 4 4 4 3 2 1 2 3 4 4 3 4 4 5 7 8 8 8 7 7 7 7 8
4 2 5 3 3 2 5 4 5 3 3 3 3 2 4 10 14 15 13 12 11 10 8 8 8 7 6 5 4 3 3 1 1 0 2 3 4 3 5 5 6 6 6 6 6 6 6 5 4
1 2 4 3 2 3 4 3 5 4 4 8 7 6 9 11 12 14 14 13 14 11 8 11 10 9 8 7 6 5 4 3 3 3 2 2 3 4 4 4 4 5 6 5 5 5 5 4 3
3 1 2 2 2 3 3 4 2 6 4 2 7 5 10 14 15 16 16 14 12 12 12 12 12 11 11 8 8 7 6 5 5 5 4 3 2 3 3 3 4 4 5 6 5 4 4 3 4
3 2 1 1 2 2 3 4 4 7 8 2 5 7 13 14 15 13 12 11 12 13 13 13 14 13 12 11 10 9 8 8 6 6 6 5 4 4 4 3 3 3 3 3 4 5 5 5 5
2 2 1 1 1 1 2 2 1 2 2 5 6 8 10 14 16 11 11 14 14 14 14 12 15 16 14 13 12 11 9 9 8 7 8 8 7 6 6 5 4 5 4 3 3 4 5 5 6
2 1 2 1 0 0 1 3 7 2 0 3 7 7 8 12 10 16 16 15 15 14 13 13 13 15 15 15 14 12 12 9 10 10 9 9 9 8 7 6 6 6 5 4 4 4 4 5 5
3 3 2 2 0 2 1 5 3 2 2 5 7 8 8 12 15 14 13 14 13 12 13 12 13 14 15 15 14 13 13 11 11 11 10 12 12 11 9 8 8 6 5 4 4 4 4 3 3
6 1 1 4 1 2 1 6 3 2 4 7 7 9 9 10 11 14 14 14 13 13 12 12 12 13 15 15 14 13 13 12 13 12 12 13 13 13 12 10 10 7 6 6 5 3 3 4 4
1 1 2 3 2 1 3 12 9 8 7 12 10 9 10 10 17 11 13 13 12 11 11 12 10 12 13 9 9 9 10 13 13 13 14 14 14 14 13 12 12 9 7 6 6 5 4 3 5
4 2 2 3 1 3 3 7 15 7 4 7 9 10 11 12 6 8 10 10 11 11 11 12 12 12 7 5 4 6 7 6 11 15 17 16 16 16 15 13 12 11 8 7 7 4 5 3 2
2 1 3 4 1 1 4 12 6 4 4 3 5 8 11 7 9 8 8 8 11 12 13 12 14 12 11 8 4 4 3 5 9 10 16 19 19 18 17 16 14 13 8 8 8 7 3 3 3
1 2 2 3 4 1 5 5 3 2 3 3 5 5 6 9 11 8 8 11 9 13 14 14 14 14 12 12 7 4 2 3 3 5 6 16 18 19 19 19 17 15 13 8 9 9 9 6 4
2 3 2 2 3 2 3 2 4 2 5 3 4 3 6 7 6 6 7 9 12 13 9 12 12 13 12 12 10 13 9 9 7 7 5 10 15 18 20 21 19 17 14 11 10 12 9 7 8
3 2 1 1 1 2 1 0 4 2 2 3 2 3 3 3 5 6 7 8 8 8 9 10 11 11 11 12 12 9 12 10 8 6 8 9 12 17 17 20 20 19 16 16 13 11 12 10 8
5 3 4 3 1 1 1 1 4 4 5 3 2 2 2 2 2 4 5 4 5 4 6 7 10 12 10 11 13 14 14 11 9 9 9 8 8 10 18 19 19 19 17 14 13 16 14 12 11
3 4 2 1 1 4 2 1 8 4 5 5 5 2 2 2 2 2 3 4 4 5 6 7 9 11 10 12 13 14 14 12 13 12 9 10 8 8 11 17 14 14 19 19 18 13 14 14 12
4 4 4 4 3 2 2 5 4 5 3 5 4 3 3 3 2 3 3 3 4 5 6 7 8 10 9 10 13 12 13 9 9 12 10 9 9 9 12 13 16 18 20 19 18 9 11 13 12
4 3 1 5 2 1 2 6 7 5 5 5 7 4 5 4 3 3 3 4 4 4 5 6 7 8 8 10 9 11 11 13 12 13 11 9 11 9 11 13 11 15 17 17 15 10 13 13 13
2 3 3 1 4 4 3 5 4 6 10 7 7 8 6 4 3 3 3 3 3 4 3 4 6 7 7 6 8 8 10 12 12 10 13 12 11 10 11 10 11 12 12 13 13 12 13 14 11
3 2 3 1 2 3 2 6 6 12 13 14 11 9 8 6 5 4 3 3 2 1 2 3 3 4 5 4 5 7 8 9 9 10 11 11 10 10 11 11 11 12 12 12 12 13 13 14 13
3 6 6 4 4 1 1 6 1 5 7 7 10 9 6 6 6 4 4 3 2 2 3 3 2 3 3 3 3 5 6 6 8 9 10 9 10 9 11 10 11 12 12 12 13 14 13 14 15
Wind_Direction
338 353 85 43 56 63 71 85 129 105 114 322 49 176 63 49 168 9 341 180 155 147 138 137 153 107 100 91 64 63 70 67 51 42 55 54 53 51 45 46 49 47 44 44 47 49 46 53 52
335 343 50 85 76 50 28 117 130 173 136 134 113 97 111 133 185 118 135 205 169 139 120 131 129 116 97 96 66 73 73 58 58 44 56 57 56 54 52 48 53 52 48 48 50 48 43 52 53
122 33 71 80 95 106 111 172 142 129 150 151 125 30 143 143 172 174 209 160 153 137 136 143 126 137 112 93 74 69 70 66 57 64 58 65 57 59 63 58 55 54 49 47 48 49 52 57 53
39 26 58 72 90 124 151 158 146 139 214 211 123 117 216 214 166 180 153 156 153 149 149 175 154 140 121 104 81 77 72 65 59 64 57 65 61 55 56 58 56 51 57 52 45 54 52 53 57
40 58 65 82 108 113 177 160 164 151 142 156 174 172 238 211 206 176 164 161 161 160 161 190 164 156 158 112 100 91 77 68 64 54 65 58 57 59 54 57 52 51 44 54 48 50 53 48 51
57 88 83 163 184 156 180 175 172 138 143 145 149 159 230 197 184 174 162 165 166 162 164 164 178 165 170 138 124 107 85 72 70 61 72 71 61 55 54 52 50 47 44 52 51 47 52 55 52
107 82 129 139 165 201 197 159 171 171 154 223 149 168 217 221 199 165 166 162 164 164 168 169 102 166 178 163 151 142 116 83 87 81 72 65 39 44 50 44 42 35 47 51 51 47 44 58 59
100 92 116 173 176 208 167 174 129 165 202 92 175 210 221 184 162 154 154 160 167 173 186 175 150 131 109 96 164 163 146 112 112 126 80 48 45 30 32 16 17 30 33 39 46 47 59 55 69
127 76 154 186 167 166 153 171 135 132 134 212 193 218 32 130 141 148 162 174 180 198 201 190 178 164 148 149 161 191 189 203 91 61 24 5 353 3 17 14 14 20 26 27 30 47 60 66 63
70 103 194 180 180 170 175 191 186 174 182 232 239 199 108 154 163 173 183 191 196 203 201 201 195 189 186 185 168 162 153 137 124 53 339 347 350 353 347 350 4 12 21 24 28 37 42 44 52
110 132 174 183 162 161 173 216 173 177 243 224 209 203 161 174 182 190 197 201 202 206 203 202 201 206 204 206 197 200 198 205 220 245 271 313 335 339 323 332 342 351 7 12 8 8 16 19 17
92 124 161 155 138 136 173 133 226 202 227 101 222 163 167 183 193 199 202 204 202 204 208 206 205 205 212 213 212 217 213 220 229 236 236 245 261 277 290 295 331 333 347 349 351 347 345 347 351
79 186 138 121 118 128 132 237 245 248 243 189 121 162 184 194 205 210 212 213 207 213 211 210 206 209 213 212 217 220 220 225 229 233 232 228 238 252 261 266 267 287 300 310 318 328 331 332 336
151 139 89 104 77 84 226 266 25 269 26 171 178 198 201 205 205 205 210 217 212 216 217 209 212 213 212 217 221 226 222 230 229 233 232 227 232 239 244 250 254 257 258 268 300 318 322 321 319
90 82 8 14 348 161 107 257 233 267 140 214 215 220 219 222 206 216 215 218 214 218 218 213 213 216 215 221 228 231 231 227 233 236 236 233 233 238 245 248 248 249 243 257 274 279 278 286 296
57 57 45 332 36 351 76 277 262 32 192 240 234 231 231 230 225 227 224 223 218 218 215 215 212 215 220 222 227 231 233 231 237 238 237 235 233 231 236 240 245 242 241 246 258 279 289 284 283
13 120 346 330 344 333 117 274 255 169 214 257 241 236 235 246 244 235 229 226 222 219 218 218 212 217 220 224 227 233 237 235 238 238 239 236 234 231 232 239 245 239 238 234 244 252 261 284 293
245 24 303 252 318 333 275 272 282 276 241 254 254 236 236 240 243 234 227 227 226 221 220 223 217 221 221 224 229 240 244 243 241 239 239 237 235 231 230 238 242 235 241 240 232 242 241 274 292
127 126 256 259 141 320 251 278 286 300 255 267 248 239 241 242 264 240 230 222 219 222 218 219 218 220 199 203 216 234 236 234 239 236 237 235 234 232 229 236 237 227 232 240 236 244 252 265 261
98 71 296 289 306 2 343 294 276 274 267 234 254 249 248 250 253 244 232 217 213 220 218 215 220 212 206 206 203 203 204 226 235 234 237 234 232 230 228 231 235 229 229 230 225 219 233 245 222
175 184 236 236 321 197 317 293 323 293 310 280 253 249 253 248 260 255 232 221 214 220 217 216 217 216 210 209 199 197 221 251 241 233 240 233 230 230 227 229 231 232 226 231 224 215 215 239 203
294 176 141 301 11 262 1 257 284 294 305 260 277 266 264 259 248 241 229 219 217 227 215 218 217 217 216 202 209 215 225 235 231 236 232 232 224 232 231 230 230 231 227 228 227 220 220 219 237
218 103 82 83 85 3 297 97 261 324 225 226 235 261 273 255 231 231 223 225 225 219 219 217 215 219 214 201 210 215 230 240 251 243 244 239 232 229 230 230 230 229 225 230 227 220 216 215 230
148 93 50 56 44 335 359 122 268 193 194 194 224 258 271 277 245 238 241 224 229 223 219 214 213 224 212 206 210 216 228 234 242 245 249 250 245 235 230 228 229 231 228 227 226 226 223 219 221
83 64 355 353 350 222 18 10 250 232 220 186 180 206 253 271 247 237 223 214 227 225 217 211 213 231 213 213 218 220 229 229 236 247 247 251 249 239 235 225 225 227 228 228 225 222 223 222 221
178 159 167 224 205 272 13 233 245 222 232 226 262 261 280 261 242 248 250 237 236 230 217 211 218 235 217 218 228 223 226 231 236 242 241 247 246 250 245 228 229 231 230 227 224 225 226 224 226
177 185 166 105 30 343 237 281 280 220 269 240 232 243 234 224 243 263 256 234 238 234 226 216 220 240 230 228 229 229 229 229 234 240 240 241 247 249 245 236 231 231 231 228 225 226 228 227 227
163 144 92 17 175 242 261 273 235 203 214 217 222 221 230 233 260 252 246 241 241 240 237 226 228 245 253 240 234 240 237 234 238 242 242 241 247 244 244 236 236 237 233 230 227 230 233 231 229
133 189 63 140 166 184 272 259 211 201 195 193 206 209 211 219 228 230 238 242 241 238 221 231 235 255 270 261 253 247 249 243 243 244 249 247 251 245 243 240 239 237 233 230 230 234 233 232 235
178 188 163 139 198 102 147 275 223 229 208 189 201 206 209 224 228 232 242 255 252 223 219 220 225 250 262 273 260 259 260 249 244 246 248 247 249 243 242 241 240 240 237 234 229 233 231 231 233